Vertical_Velocity
-2 -1 2 1 -3 4 -1 -4 2 9 2 -3 -0 -3 -2 -0 -1 -3 -3 -5 -4 -1 -2 -1 1 -1 -2 -2 -2 -1 -0 -3 -1 0 -0 -0 -2 -2 -3 -4 -3 -1 -0 -0 -1
3 -5 8 -5 -2 1 -4 2 2 -9 5 -2 -1 -3 -0 -0 -3 -3 -2 -4 -3 -1 -1 -2 -0 -1 -1 -3 -2 0 1 -0 0 1 1 1 1 0 -0 -0 1 0 -1 1 1
5 -1 1 -0 1 -2 0 5 2 -2 1 1 -2 -1 -0 -3 -2 -1 -1 -3 -1 -1 -1 -1 -2 -0 -0 -1 0 1 1 1 1 1 1 1 1 0 1 1 -1 -3 -2 -2 -3
-2 3 0 -2 3 -4 3 -6 5 -1 1 -0 -2 -0 -2 -3 -3 -1 1 -1 -0 0 0 2 1 -0 -1 -1 -1 -1 -0 -0 -1 -1 1 1 -0 -1 -1 -1 -2 -1 -1 -1 -0
1 2 1 -4 1 -3 0 -7 2 -0 2 -0 -1 -2 -0 -2 -2 -2 -0 -1 -1 -1 -0 -0 -0 0 -1 -2 -2 -1 0 0 1 1 0 -0 -1 -2 -2 -2 -1 -2 -2 -3 -2
-3 1 3 -1 -3 -4 -3 -0 -1 0 1 1 -0 -3 -2 0 1 -0 -1 -1 -1 -0 -0 1 1 0 -1 -1 -0 -0 -1 -1 -0 -1 -0 -1 -1 1 -0 -0 -1 -1 -2 -3 -2
-1 2 3 -0 -4 -3 -1 1 -2 0 -0 0 -2 -0 -2 -2 -1 1 -1 -0 -1 -2 0 1 1 0 -0 -0 0 0 -0 -0 -1 -2 -1 -0 1 1 -0 -1 -2 -3 -3 -3 -1
2 2 1 -5 -3 -1 0 -1 -0 0 0 -1 -1 -2 -2 1 -1 -0 -1 -0 -0 1 1 0 -0 1 1 0 -0 -0 1 -0 -1 -0 -0 0 1 -2 -0 -1 -0 -1 -1 -1 -3
2 -0 -3 -2 -0 -1 -0 1 1 0 -0 -0 -0 -2 -2 0 -1 -1 -1 1 1 2 0 0 1 -0 0 0 0 1 1 0 -0 1 -1 -0 1 -1 -0 -0 0 -0 1 1 -1
0 -2 -0 0 -1 -2 -1 1 0 0 0 -0 1 0 1 0 0 0 0 2 1 0 -0 -1 0 -0 0 2 1 0 -1 -2 -0 1 0 2 -3 1 -0 1 0 1 1 1 2
0 -0 -1 -0 1 -2 -0 0 0 -1 -0 -2 0 1 1 0 -0 -0 0 -0 -0 1 -1 -0 -0 -2 -1 -1 -0 -1 -1 -1 0 -0 2 1 -3 -1 3 0 1 3 4 2 2
0 0 -1 -0 0 -1 -1 0 -1 -1 -0 0 0 -0 -0 0 0 -0 1 1 1 0 1 0 -1 -1 -1 -0 0 1 -0 0 -1 -2 -2 -1 -4 -1 -0 -1 0 1 0 -0 -2
-0 -1 0 0 -1 -0 -1 -1 -1 0 0 -1 -0 -0 0 1 1 0 0 -0 -0 1 -0 -1 -0 -0 0 -1 -0 -0 0 -0 -0 0 -3 -2 3 -5 -1 -2 -1 1 -1 -1 -1
-1 -0 1 -1 -0 -0 -1 -1 1 -0 -0 -0 0 -1 -1 1 0 -0 -1 -1 -0 -1 0 -0 -0 -0 0 -0 -0 -1 -2 -3 -2 0 -1 -2 1 -3 0 -2 1 -4 -1 -1 -0
0 0 0 -1 -2 -0 -0 -0 0 -1 0 1 0 1 -0 -0 -1 -0 -1 -1 -2 -1 -1 -1 0 1 -1 -1 -1 -2 -2 -2 -0 2 -2 -1 -3 -6 -1 -1 -2 -3 -1 -3 -2
-1 1 -1 -0 -3 -1 -1 -2 -1 -1 -0 -0 -0 -0 1 1 -1 -1 -1 -1 -1 -1 -1 -0 -0 -1 -1 -2 -1 -0 -2 -1 1 1 3 -1 -4 -3 -3 -1 -4 -2 -2 -3 -3
-0 -0 1 0 -1 -1 -1 -1 -2 0 1 0 0 -0 0 0 0 0 -1 -1 -2 -1 0 -0 -0 -1 -1 -2 -3 -1 -1 -1 -1 -5 -4 -2 -2 -3 -3 -2 -2 -2 -1 -0 -1
0 0 0 1 0 -0 -2 -1 -1 1 -1 -1 -1 -1 -1 -0 -0 -1 -1 -1 -1 -1 0 0 -1 -1 -1 -3 -2 -1 -1 -4 -6 -9 3 1 -5 -3 -0 -2 -2 0 -1 -2 -1
0 0 1 0 -1 -0 -1 -0 0 -1 0 -1 -1 -2 1 0 0 -0 -1 -1 -1 -0 -2 -2 -2 -0 -1 -2 -3 -2 -3 1 -0 4 7 2 -1 3 -1 1 -1 -2 -2 0 -2
0 0 0 1 0 -1 -1 0 -1 -1 -0 1 -1 -2 -1 -0 -0 -0 -1 -0 -0 -1 -0 -1 -2 -0 0 -0 -1 -3 -2 -1 -1 -12 -8 4 -2 -1 -0 -2 -1 -1 -0 -2 -3
-1 1 1 1 -0 -1 1 -0 -0 -0 -0 -0 1 0 -1 -1 -0 -0 -0 0 0 -1 0 -1 -1 0 -0 -0 -1 -1 -2 -4 -2 -6 -5 -10 -6 -1 -2 -2 -0 -1 -2 -3 -1
-1 -0 1 -0 -0 0 0 0 -0 -0 0 1 1 1 0 0 -1 0 1 1 0 -1 -1 -1 -1 0 -0 -0 -3 -3 -3 -2 -5 -1 -5 2 -6 -4 -5 -3 -1 -1 -3 -2 2
-1 -0 -2 -1 2 1 -0 0 1 1 -0 0 2 0 1 1 0 0 1 1 1 1 -1 -1 -0 1 1 -1 -2 -2 -2 -1 1 -0 2 -6 -8 -6 -4 -4 -2 -2 -1 -0 -1
-0 -1 -0 -0 1 -0 1 -0 2 -0 -0 1 1 2 1 1 0 -0 1 0 0 1 1 -0 -1 -1 -0 -1 -1 -4 0 -1 -1 0 3 0 2 2 -3 -3 -2 -2 -2 -2 -1
-1 1 2 1 2 2 -0 2 -1 1 0 -0 1 3 1 1 1 2 0 -1 0 0 1 -0 -2 -1 -1 -2 -0 -2 -1 0 -1 -0 -2 -2 -1 2 -3 -3 -3 -2 -3 -1 -1
2 0 -1 2 -0 -0 1 3 2 1 1 1 0 1 1 -0 2 -0 1 -0 -1 -1 1 0 -0 -2 -1 -1 -2 1 -3 -2 -2 -4 1 -4 3 -3 -3 -2 -1 0 -2 -0 -1
4 -1 -1 2 1 1 3 2 0 -0 2 1 1 1 1 1 1 0 0 1 1 0 0 0 -1 0 1 2 0 3 -1 -1 3 -2 -3 -2 -1 -4 -1 0 -0 -0 -1 -1 -1
Height
5862 5863 5867 5868 5869 5870 5874 5873 5874 5873 5878 5878 5879 5879 5880 5881 5881 5881 5881 5881 5880 5879 5879 5879 5879 5879 5879 5879 5879 5878 5878 5876 5876 5875 5875 5874 5872 5871 5869 5867 5866 5864 5862 5860 5857
5863 5866 5867 5870 5870 5873 5873 5876 5878 5877 5879 5881 5881 5881 5882 5883 5883 5883 5883 5883 5882 5882 5881 5880 5881 5881 5881 5881 5880 5880 5880 5878 5878 5877 5875 5873 5872 5870 5868 5866 5864 5862 5859 5856 5853
5864 5867 5869 5870 5872 5875 5875 5878 5878 5880 5881 5882 5883 5884 5885 5885 5886 5886 5886 5886 5885 5884 5883 5883 5883 5883 5883 5882 5882 5881 5880 5879 5878 5877 5875 5873 5871 5869 5867 5865 5863 5860 5857 5853 5849
5865 5868 5870 5872 5875 5875 5878 5879 5879 5881 5883 5884 5885 5886 5886 5887 5888 5888 5888 5888 5887 5887 5886 5886 5885 5885 5884 5883 5882 5881 5880 5879 5877 5876 5874 5872 5870 5868 5866 5863 5860 5857 5852 5848 5844
5867 5869 5872 5875 5876 5876 5878 5880 5881 5883 5885 5886 5888 5887 5887 5889 5889 5890 5890 5889 5889 5888 5888 5887 5887 5886 5885 5884 5882 5881 5880 5878 5876 5874 5872 5870 5868 5866 5863 5859 5856 5852 5848 5844 5839
5869 5871 5874 5876 5876 5878 5879 5880 5881 5884 5886 5888 5889 5889 5889 5890 5891 5891 5891 5891 5890 5889 5889 5888 5887 5887 5885 5883 5881 5880 5878 5876 5874 5872 5870 5867 5865 5862 5859 5856 5852 5848 5844 5839 5834
5870 5873 5875 5877 5877 5880 5880 5880 5882 5884 5886 5888 5890 5890 5891 5892 5891 5891 5891 5890 5889 5889 5888 5887 5887 5886 5884 5881 5879 5877 5876 5873 5871 5870 5867 5865 5863 5860 5857 5853 5848 5844 5839 5834 5829
5872 5874 5877 5877 5879 5880 5880 5881 5883 5885 5887 5888 5890 5891 5891 5892 5890 5891 5890 5889 5888 5888 5887 5886 5885 5884 5882 5879 5877 5875 5873 5871 5869 5866 5864 5862 5860 5856 5853 5850 5845 5840 5834 5830 5825
5873 5875 5877 5880 5881 5879 5880 5882 5884 5886 5888 5889 5891 5892 5893 5892 5891 5890 5890 5889 5888 5887 5886 5885 5883 5881 5879 5877 5875 5873 5870 5868 5866 5863 5860 5859 5856 5853 5850 5846 5841 5835 5831 5825 5820
5874 5877 5879 5881 5880 5880 5881 5883 5885 5887 5888 5890 5891 5894 5893 5892 5891 5890 5890 5889 5888 5886 5885 5884 5882 5880 5878 5876 5873 5870 5868 5866 5863 5861 5858 5856 5853 5851 5847 5841 5836 5831 5826 5821 5814
5876 5878 5879 5880 5881 5882 5883 5885 5888 5889 5888 5890 5891 5891 5892 5892 5891 5890 5889 5888 5887 5886 5884 5883 5881 5880 5877 5874 5872 5869 5867 5865 5862 5860 5857 5854 5851 5846 5843 5837 5832 5827 5822 5816 5808
5877 5879 5880 5881 5883 5883 5884 5886 5887 5889 5890 5890 5890 5891 5891 5891 5891 5890 5889 5889 5887 5886 5884 5883 5880 5878 5875 5873 5871 5869 5866 5864 5861 5858 5856 5851 5849 5843 5838 5833 5828 5823 5816 5809 5801
5877 5879 5881 5883 5884 5885 5886 5888 5888 5888 5890 5890 5891 5891 5891 5892 5891 5890 5889 5888 5887 5885 5883 5881 5879 5876 5874 5872 5870 5867 5865 5863 5860 5856 5852 5849 5846 5839 5834 5828 5823 5817 5810 5802 5793
5877 5879 5881 5883 5886 5886 5887 5888 5888 5889 5890 5891 5891 5892 5892 5891 5891 5890 5888 5888 5885 5884 5881 5880 5877 5875 5872 5871 5869 5866 5864 5861 5857 5852 5849 5844 5842 5834 5829 5823 5817 5809 5802 5795 5785
5876 5879 5881 5883 5884 5886 5888 5888 5889 5890 5891 5892 5891 5891 5891 5892 5891 5890 5888 5886 5884 5883 5882 5879 5876 5874 5872 5870 5867 5865 5862 5858 5853 5850 5845 5841 5837 5828 5823 5817 5810 5802 5795 5787 5778
5876 5878 5880 5882 5884 5886 5887 5889 5890 5892 5891 5891 5891 5891 5891 5891 5890 5889 5887 5886 5884 5882 5880 5878 5876 5874 5872 5869 5866 5864 5861 5857 5852 5847 5843 5837 5830 5824 5817 5810 5803 5797 5788 5780 5771
5876 5877 5879 5881 5884 5885 5887 5888 5891 5890 5892 5891 5891 5890 5890 5890 5889 5888 5886 5885 5883 5882 5880 5878 5876 5873 5870 5868 5865 5861 5857 5853 5851 5845 5839 5832 5826 5819 5812 5806 5799 5791 5782 5773 5764
5875 5876 5878 5879 5882 5884 5886 5888 5889 5890 5889 5889 5890 5889 5889 5889 5888 5887 5886 5884 5883 5881 5879 5877 5875 5872 5870 5867 5864 5860 5855 5849 5843 5839 5835 5830 5822 5815 5809 5801 5793 5785 5776 5768 5758
5873 5875 5876 5878 5880 5881 5884 5885 5886 5887 5887 5887 5888 5888 5887 5887 5887 5886 5884 5883 5882 5880 5879 5877 5875 5872 5870 5867 5864 5859 5853 5848 5842 5838 5832 5826 5818 5812 5804 5797 5789 5780 5771 5762 5752
5869 5872 5873 5875 5877 5879 5881 5883 5884 5884 5885 5885 5885 5886 5886 5885 5885 5885 5884 5883 5882 5880 5877 5876 5874 5871 5869 5865 5861 5856 5852 5846 5839 5830 5826 5823 5815 5807 5800 5793 5785 5774 5765 5756 5745
5865 5868 5870 5872 5874 5876 5878 5880 5881 5882 5882 5883 5883 5883 5884 5884 5884 5884 5884 5882 5881 5879 5877 5875 5873 5871 5868 5864 5860 5856 5851 5846 5841 5834 5826 5818 5813 5806 5798 5789 5778 5769 5760 5750 5739
5861 5865 5866 5868 5871 5873 5875 5877 5878 5879 5879 5880 5880 5881 5882 5882 5882 5882 5882 5881 5880 5878 5876 5874 5871 5868 5866 5863 5859 5855 5850 5845 5838 5832 5825 5818 5811 5802 5793 5784 5773 5764 5755 5744 5733
5857 5860 5862 5864 5867 5869 5871 5873 5874 5875 5876 5877 5878 5879 5880 5880 5881 5881 5880 5879 5878 5877 5875 5872 5870 5868 5865 5863 5859 5854 5849 5843 5838 5832 5826 5818 5809 5799 5790 5779 5768 5758 5749 5738 5726
5851 5854 5857 5860 5863 5865 5866 5868 5870 5871 5872 5873 5874 5876 5877 5878 5878 5878 5878 5877 5876 5875 5873 5871 5869 5867 5865 5861 5857 5852 5846 5841 5835 5829 5823 5815 5807 5797 5786 5775 5764 5753 5743 5732 5720
5845 5849 5852 5855 5858 5860 5862 5865 5866 5868 5869 5870 5871 5872 5874 5875 5876 5876 5875 5874 5874 5873 5871 5869 5867 5865 5862 5858 5855 5850 5845 5840 5833 5827 5819 5813 5803 5794 5782 5771 5759 5747 5737 5726 5714
5839 5843 5846 5850 5852 5855 5857 5860 5861 5863 5865 5866 5868 5869 5870 5871 5873 5872 5872 5872 5871 5870 5868 5866 5865 5861 5858 5856 5853 5849 5844 5838 5831 5824 5816 5807 5800 5790 5779 5768 5755 5743 5732 5721 5710
5833 5836 5839 5843 5846 5849 5852 5854 5856 5857 5860 5862 5864 5865 5866 5867 5868 5868 5868 5868 5868 5867 5865 5864 5861 5860 5856 5853 5850 5847 5842 5837 5830 5821 5813 5804 5796 5786 5776 5764 5752 5739 5728 5717 5706